CET,Max TemperatureF,Mean TemperatureF,Min TemperatureF,Max Dew PointF,MeanDew PointF,Min DewpointF,Max Humidity, Mean Humidity, Min Humidity, Max Sea Level PressureIn, Mean Sea Level PressureIn, Min Sea Level PressureIn, Max VisibilityMiles, Mean VisibilityMiles, Min VisibilityMiles, Max Wind SpeedMPH, Mean Wind SpeedMPH, Max Gust SpeedMPH,PrecipitationIn, CloudCover, Events, WindDirDegrees
2012-12-1,53,47,39,45,36,30,100,69,41,30.04,29.88,29.74,6,5,2,14,4,,0.00,3,Fog,26
2012-12-2,55,45,35,37,33,27,87,65,33,30.36,30.24,30.06,,,,13,4,,0.00,,,52
2012-12-3,59,47,35,41,36,30,93,71,34,30.48,30.42,30.36,,,,7,2,,0.00,,,251
2012-12-4,57,46,35,52,44,34,100,83,72,30.42,30.35,30.06,6,5,2,10,2,,0.00,4,Fog,216
2012-12-5,59,52,46,52,46,41,100,81,51,30.30,30.24,30.18,6,6,5,10,4,,0.00,2,Fog,177
2012-12-6,53,48,44,48,44,41,94,83,71,30.21,30.18,30.12,6,6,4,8,3,,0.00,3,Rain,42
2012-12-7,60,55,50,57,54,48,100,96,88,30.09,30.03,29.98,6,4,2,10,4,,0.00,5,Rain,79
2012-12-8,62,56,50,57,52,48,100,92,68,30.24,30.17,30.09,6,3,0,7,2,,0.00,5,Fog,43
2012-12-9,59,50,42,46,43,39,93,77,59,30.30,30.24,30.21,,,,13,6,,0.00,,,44
2012-12-10,60,51,42,48,44,39,93,79,59,30.24,30.16,30.12,6,5,4,7,2,,0.00,,,60
2012-12-11,59,50,41,46,44,39,100,85,55,30.15,30.09,30.04,6,5,4,7,3,,0.00,,,49
2012-12-12,57,49,41,48,45,39,100,86,67,30.06,30.01,29.98,6,5,3,6,2,,0.00,2,,42
2012-12-13,59,50,42,50,47,43,100,91,67,30.06,30.02,29.98,6,3,0,8,2,,0.00,3,Fog,163
2012-12-14,62,56,50,59,55,50,100,89,77,30.06,30.04,30.01,6,5,2,22,9,34,0.00,4,,213
2012-12-15,64,62,59,63,60,59,100,95,88,30.27,30.15,30.06,6,4,1,22,16,34,0.00,7,Rain,223
2012-12-16,64,60,57,59,58,55,100,93,73,30.36,30.29,30.27,6,4,0,8,4,,0.00,4,Fog,218
2012-12-17,64,60,55,61,58,55,100,96,83,30.33,30.28,30.24,6,4,0,9,5,,0.00,5,Fog,215
2012-12-18,64,58,53,59,56,52,100,92,73,30.27,30.22,30.18,6,4,0,7,1,,0.00,3,Fog,51
2012-12-19,55,50,46,54,52,46,100,98,93,30.21,30.17,30.15,4,3,2,6,1,,0.00,5,Fog,136
2012-12-20,60,55,50,59,56,50,100,97,94,30.24,30.19,30.15,6,3,1,10,1,,0.00,5,,202
2012-12-21,62,58,53,57,55,52,100,92,72,30.30,30.26,30.21,6,4,0,4,1,,0.00,4,Fog,309
2012-12-22,66,58,50,55,53,50,100,85,68,30.30,30.26,30.21,6,6,5,13,3,,0.00,5,,49
2012-12-23,66,56,46,55,52,46,100,87,64,30.24,30.19,30.15,6,4,2,7,2,,0.00,,,71
2012-12-24,68,57,46,55,51,45,100,89,60,30.18,30.06,29.95,6,3,0,7,2,,0.00,3,Fog,38
2012-12-25,60,55,50,59,48,43,94,75,52,30.21,30.03,29.89,6,6,2,22,9,,0.00,4,Rain-Thunderstorm,252
2012-12-26,59,49,39,46,43,39,100,80,55,30.45,30.33,30.21,6,6,6,6,2,,0.00,1,,72
2012-12-27,60,50,41,46,42,37,100,78,45,30.54,30.47,30.45,,,,9,4,,0.00,,,44
2012-12-28,62,50,37,45,40,36,93,76,45,30.51,30.43,30.39,5,5,5,12,5,,0.00,,,36
2012-12-29,59,47,35,52,43,34,100,83,63,30.45,30.39,30.36,6,6,3,7,2,,0.00,3,Fog-Rain,24
2012-12-30,59,49,39,46,43,37,100,81,59,30.54,30.47,30.42,6,5,5,8,4,,0.00,1,Fog,44
2012-12-31,57,47,37,46,42,36,100,83,59,30.45,30.32,30.24,6,6,4,8,2,,0.00,5,,47